Regional Weather Roundup
Issued by NWS Pendleton, OR

Home | Current Version | Previous Version | Text Only | Print | Product List | Glossary On
Versions: 1 2 3 4 5 6 7 8 9 10 11 12 13 14 15 16 17 18 19 20 21 22 23 24 25 26 27 28 29 30 31 32 33 34 35 36 37 38 39 40 41 42 43 44 45 46 47 48 49 50
000
ASUS46 KPDT 252304
RWRPDT
PENDLETON REGIONAL WEATHER ROUNDUP
NATIONAL WEATHER SERVICE PENDLETON OREGON
400 PM PDT WED MAY 25 2016

NOTE: FAIR INDICATES FEW OR NO CLOUDS BELOW 12,000 FEET WITH NO
SIGNIFICANT WEATHER AND/OR OBSTRUCTIONS TO VISIBILITY.

# INDICATES UNOFFICIAL STATION AND DATA

WAZ520-260010-
EAST SLOPES OF WASHINGTON CASCADES

CITY            SKY/WX      TMP DP  RH  WIND    PRES   REMARKS
#CLE ELUM HS    N/A         62  43  50  W12     30.01F
#CLE ELUM 2NW   N/A         61  41  48  S6      N/A
#GLENWOOD       N/A         67  49  52  S7      30.02S
#MANASTASH CYN  N/A         65  41  41  NE1     30.01S
#NELSON 3SW     N/A         58  43  57  S1      30.22S
#NILE           N/A         64  43  46  W7      29.28F
#TEANAWAY 4NE   N/A         65  50  58  W3      N/A
#TROUT LAKE 1NE N/A         62  48  60  W15     30.05F
#TROUT LAKE 1E  N/A         63  48  58  CALM    30.05R
$$

WAZ521-260010-
SIMCOE HIGHLANDS

CITY            SKY/WX      TMP DP  RH  WIND    PRES   REMARKS
#GOLDENDALE 1NE N/A         66  34  30  SW10    N/A
#GOLDENDALE 4W  N/A         67  53  61  W17     30.09S
#GOODNOE HILLS  N/A         71  46  41  SW26    29.93S
#LYLE 6NE       N/A         62  50  65  SW12G24 30.03F
$$

WAZ026-260010-
KITTITAS VALLEY

CITY            SKY/WX      TMP DP  RH  WIND    PRES   REMARKS
ELLENSBURG AP   PTCLDY      70  44  39  NW29G35 30.00F
#ELLENSBURG CWU N/A         69  43  39  NW20    29.91S
#ELLENSBURG 3NE N/A         65  46  50  NW15G28 30.00S
#ELLENSBURG     N/A         69  45  42  N5      N/A
#ELLENSBURG 1E  N/A         69  N/A N/A NW5     N/A
#ELLENSBURG 13S N/A         75  43  32  E9      N/A
#KITTITAS 4N    N/A         66  45  47  NW18    30.04S
#KITTITAS 3S    N/A         68  48  49  NW14    29.93F
#THORP 6N       N/A         61  45  56  NW25G33 30.00F
$$

WAZ027-260010-
YAKIMA VALLEY

CITY            SKY/WX      TMP DP  RH  WIND    PRES   REMARKS
SUNNYSIDE AP    SUNNY       76  44  32  N6      29.96F
YAKIMA AIRPORT  PTCLDY      80  46  30  NW9     29.97F
YAKIMA-VAGABOND SUNNY       77  43  30  NW10    29.96S
#DONALD 2NE     N/A         83  10   6  S1      28.81F
#GRANDVIEW      N/A         77  39  25  NW2     29.94F
#MABTON         N/A         77  46  33  N8      29.94F
#NACHES 2SW     N/A         69  48  47  W12     30.01F
#TERRACE HTS    N/A         82  49  32  N1      29.90F
#TOPPENISH      N/A         76  48  37  CALM    29.85F
#W YAKIMA       N/A         74  48  40  N5      29.94F
#WHITE SWAN 5E  N/A         76  49  39  CALM    29.94F
#WILEY CITY 3W  N/A         76  42  30  CALM    29.95F
$$

WAZ028-260010-
LOWER COLUMBIA BASIN...WASHINGTON

CITY            SKY/WX      TMP DP  RH  WIND    PRES   REMARKS
PASCO           SUNNY       79  39  24  S10     29.97F
PROSSER AWOS    N/A         79  45  30  NW8     29.97F
RICHLAND AWOS   SUNNY       82  43  25  S13     29.95F
#BASIN CITY 5SW N/A         78  50  38  S6      29.91F
#BENTON CITY    N/A         76  46  34  S15     29.84F
#CONNELL 5N     N/A         76  47  36  SW7     29.94F
#CONNELL 5NW    N/A         75  50  41  SW5     29.91F
#ELTOPIA 6NW    N/A         74  52  46  SW5     28.94F
#KAHLOTUS       N/A         73  44  35  W16     29.94F
#KENNEWICK 3S   N/A         76  46  34  N5      29.96F
#PATERSON       N/A         75  46  36  W15     29.94F
#SAGEMOOR 2W    N/A         76  50  40  S3      29.80F
#TOUCHET 2S     N/A         76  52  43  NW3     29.94F
#WEST PASCO     N/A         81  51  35  S5      29.99F
$$

WAZ029-260010-
FOOTHILLS OF THE BLUES...WASHINGTON

CITY            SKY/WX      TMP DP  RH  WIND    PRES   REMARKS
WALLA WALLA AP  PTCLDY      74  45  35  SW10    30.00F
#CLYDE 6NW      N/A         73  43  34  W12     29.95F
#DAYTON SCHOOL  N/A         72  41  33  SW1     30.02F
#LOWDEN 2SE     N/A         76  51  42  W6      29.94F
#PLEASANT VIEW 1N/A         72  46  39  SW5     30.00F
#PRESCOTT       N/A         74  50  43  SW2     29.96F
#SUDBURY        N/A         62  N/A N/A CALM    N/A
#WHITMAN COLLEGEN/A         74  49  41  W5      30.01F
#WAITSBURG 8N   N/A         73  21  14  S9      29.82S
#WALLA WALLA 5E N/A         76  52  43  SW5     N/A
#WALLA WALLA U  N/A         75  49  40  W3      29.96F
#WHITMAN MISSIONN/A         75  52  45  W2      29.97F
$$

WAZ030-260010-
BLUE MOUNTAINS...WASHINGTON

CITY            SKY/WX      TMP DP  RH  WIND    PRES   REMARKS
#DIXIE 5SE      N/A         64  48  56  W7      29.99S
$$

ORZ009-041-WAZ024-260010-
COLUMBIA RIVER GORGE

CITY            SKY/WX      TMP DP  RH  WIND    PRES   REMARKS
HOOD RIVER AP   PTCLDY      66  46  48  W10G26  30.12S
THE DALLES AP   LGT RAIN    71  45  39  W21G35  30.06S
#ARLINGTON AIRPON/A         72  48  43  W20     30.00S
#CELILO DOT     N/A         71  46  41  SW12    N/A
#LYLE           N/A         64  49  58  NW22G35 30.10S
#MARYHILL 2W    N/A         66  49  54  SW2     N/A
#MOSIER 1S      N/A         64  36  35  NW14    30.09S
#MURDOCK        N/A         66  50  56  W23G32  30.03S
#RUFUS DOT      N/A         72  47  41  W18     N/A
#SMITHIVILLE    N/A         68  49  51  N26G35  29.98F

$$

ORZ510-260010-
NORTH CENTRAL OREGON

CITY            SKY/WX      TMP DP  RH  WIND    PRES   REMARKS
#ANTELOPE       N/A         67  44  43  S2      29.90S
#CHENOWITH 1W   N/A         60  44  55  W37     N/A
#COW CYN RST AREN/A         62  N/A N/A W7      N/A
#DUFUR 9E       N/A         59  45  60  NW24G31 30.10S
#GRASS VALLEY   N/A         62  44  52  NW3     N/A
#GRASS VALLEY 1SN/A         65  46  50  N8      30.01F
#KENT DOT       N/A         67  34  29  N7      N/A
#MAUPIN SCHOOL  N/A         73  49  43  SW5     30.07S
#MORO SCHOOL    N/A         63  51  65  NW17G24 30.06F
#SHANIKO 4NW    N/A         62  -48  1  W7      30.10S
#TYGH VALLEY 2NEN/A         72  48  43  SW5     30.01F
#WAPANITIA AIRPON/A         66  46  48  W10     30.05F
#WASCO DOT      N/A         67  43  42  W15     N/A
#WASCO 5NE      N/A         67  48  50  SW10    30.01F
$$

ORZ511-260010-
CENTRAL OREGON

CITY            SKY/WX      TMP DP  RH  WIND    PRES   REMARKS
BEND AIRPORT    PTCLDY      63  39  41  N10     30.08F
MADRAS AIRPORT  SUNNY       73  46  38  N14     30.10S
PRINEVILLE AP   MOCLDY      66  41  40  NW9     30.08F
REDMOND AIRPORT MOSUNNY     68  38  33  NW10    30.08S
#ASHWOOD SCHOOL N/A         67  43  42  NW7     30.03S
#BEND 1SW       N/A         63  43  48  NW3     N/A
#BEND-AWBREY    N/A         68  45  44  N3      30.04F
#BEND-KIM LN    N/A         67  44  43  NW3     30.07S
#CULVER         N/A         67  46  47  NE6     29.99S
#CULVER 8W      N/A         64  41  43  CALM    30.07S
#LAKE BILLY CHINN/A         66  N/A N/A N8      30.12R
#MADRAS 4S      N/A         65  14  14  N10     30.14S
#POWELL BUTTE 3EN/A         63  41  44  NW5     N/A
#POWELL BUTTE   N/A         68  45  44  N6      29.95F
#PRINEVILLE 3N  N/A         67  44  43  W3      30.01F
#WARM SPRINGS   N/A         68  45  44  CALM    30.04S

$$


ORZ509-260010-
EAST SLOPES OF OREGON CASCADES

CITY            SKY/WX      TMP DP  RH  WIND    PRES   REMARKS
SISTERS AWOS    N/A         63  43  48  SW17G30 30.07F
#BLUE BOX PASS  N/A         48  N/A N/A NW6     N/A
#CAMP SHERMAN   N/A         63  42  46  SW3     30.13F
#LA PINE DOT    N/A         65  31  28  W12     N/A
#LA PINE 4NW    N/A         60  41  49  W2      30.07F
#LAVA BUTTE DOT N/A         62  33  34  NE2     N/A
#SISTERS AIRPOR N/A         62  49  62  N9      30.17S
#SISTERS ODOT   N/A         63  N/A N/A SE8     N/A
#SISTERS 3N     N/A         62  43  50  N2      30.08S
#SUNRIVER       N/A         63  41  44  N2      30.05F
#TUMALO 3W      N/A         61  41  48  N9      29.93S
#WANOGA BUTTE D N/A         51  36  56  NE5     N/A

$$

ORZ044-260010-
LOWER COLUMBIA BASIN...OREGON

CITY            SKY/WX      TMP DP  RH  WIND    PRES   REMARKS
HERMISTON       SUNNY       78  42  28  W14     29.97F
#BOARDMAN SCHOOLN/A         76  45  33  SW13    29.96F
#ECHO 8SW       N/A         76  46  34  W8      29.99F
#I-84 EX 198 DOTN/A         74  46  37  E14     N/A
#UMATILLA SCHOOLN/A         79  55  44  W15     30.02S
#UMATILLA       N/A         77  44  31  SW7     29.89F
$$

ORZ507-260010-
NORTHERN FOOTHILLS OF THE BLUES

CITY            SKY/WX      TMP DP  RH  WIND    PRES   REMARKS
PENDLETON AIRPT SUNNY       73  41  31  W14     29.99F
#ADAMS 3WNW     N/A         73  47  40  W9      29.97F
#ATHENA         N/A         71  46  41  CALM    30.00F
#CAYUSE         N/A         71  46  41  NW7     29.96F
#HELIX SCHOOL   N/A         71  45  39  W3      29.98F
#HELIX 3N       N/A         70  47  44  SW9     29.99F
#HOLDMAN 5SE    N/A         73  50  44  W6      30.00F
#HOLDMAN 6E     N/A         71  46  41  E6      29.79F
#M-F GROVE ELEM N/A         73  41  31  W1      29.98F
#M-FREEWATER 5SEN/A         74  49  41  W1      29.99F
#PENDLETON DNTN N/A         78  44  30  N7      30.01S
#PDT AQUATIC CTRN/A         77  46  33  W2      30.02S
#PDT SUNRIDGE   N/A         75  45  34  W3      30.00F
#PENDLETON 7NW  N/A         74  52  46  W7G24   32.27S
#PILOT ROCK 1S  N/A         70  42  36  W6      30.01F
#PILOT ROCK     N/A         74  43  33  NE3     30.02F
#TUTUILLA       N/A         75  48  38  CALM    29.98F
#UMAPINE 2E     N/A         77  49  37  W2      29.96F
#WESTON SCHOOL  N/A         70  41  35  N6      29.91F

$$

ORZ508-260010-
SOUTHERN FOOTHILLS OF THE BLUES

CITY            SKY/WX      TMP DP  RH  WIND    PRES   REMARKS
LEXINGTON       SUNNY       73  45  37  W17G25  30.04F
#AJAX           N/A         66  41  40  SW13    27.80F
#CONDON SCHOOL  N/A         66  42  42  W8      30.01F
#CONDON 5W      N/A         63  41  44  W10     30.04F
#FOSSIL SCHOOL  N/A         68  41  37  W3      30.00F
#HEPPNER EOC    N/A         70  42  36  W7      29.92F
#HEPPNER 4NE    N/A         66  45  47  NW10    29.99F
#LEXINGTON 2SE  N/A         74  47  38  N14     29.96F
#OLEX 4N        N/A         69  47  45  W18G30  30.01S
#RUGGS 5NE      N/A         71  41  34  W8      30.17F
#RUGGS 2SW      N/A         69  40  35  W8      30.01F

$$

ORZ502-503-260010-
BLUE MOUNTAINS

CITY            SKY/WX      TMP DP  RH  WIND    PRES   REMARKS
MEACHAM         PTCLDY      62  38  41  MISG    30.07S
#BATTLE MTN DOT N/A         63  44  50  N6      N/A
#CUTSFORTH PARK N/A         60  42  51  CALM    29.86S
#GREENHORN 9SW  N/A         61  41  48  NW1     26.24F
#HARDMAN 10S    N/A         61  34  36  N5      30.22R
#HEPPNER 15SE   N/A         64  42  45  NW3     29.98F
#LADD CYN SMT   N/A         64  32  30  N8      N/A
#LADD CREEK ODOTN/A         67  39  36  NE8     N/A
#LONG CREEK HS  N/A         61  45  56  CALM    N/A
#N POWDER DOT   N/A         67  40  37  N14     N/A
#PIKES PEAK     N/A         60  44  55  W8      27.99S
#TOLLGATE       N/A         53  42  66  S1      29.96S
#TROY SCHOOL    N/A         64  50  60  N3      29.86R
#UKIAH          N/A         65  44  46  CALM    29.94F
#WESTON 4E      N/A         64  45  50  S6      29.97F
$$

ORZ505-260010-
JOHN DAY BASIN

CITY            SKY/WX      TMP DP  RH  WIND    PRES   REMARKS
JOHN DAY        N/A         N/A N/A N/A MISG    N/A
#DAYVILLE SCHOOLN/A         71  35  27  N2      29.99F
#MITCHELL       N/A         66  43  43  NW1     30.20F
#MITCHELL 8NW   N/A         66  37  34  NW2     30.21F
#MONUMENT HS    N/A         71  41  34  NE3     29.97F
#MT. VERNON 5SE N/A         63  41  44  N6      30.02S
#SPRAY SCHOOL   N/A         73  N/A N/A CALM    N/A
#WINLOCK        N/A         71  44  38  CALM    30.02F
$$

ORZ506-260010-
OCHOCO AND JOHN DAY HIGHLANDS

CITY            SKY/WX      TMP DP  RH  WIND    PRES   REMARKS
#BUCK CREEK DOT N/A         60  39  46  W15     N/A
#HORSE RIDGE DO N/A         59  34  39  NE8     N/A
#KEYES SMT DOT  N/A         58  37  45  NW8     N/A
#PAULINA SCHOOL N/A         62  37  39  NW7     N/A
#PINE MTN OBS   N/A         50  37  61  N1      N/A
#PRAIRIE CITY   N/A         64  42  45  E2      30.19F
#SENECA         N/A         60  N/A N/A N2      N/A
#SENECA 9NW     N/A         58  40  51  CALM    30.00F
$$

ORZ049-260010-
GRANDE RONDE VALLEY

CITY            SKY/WX      TMP DP  RH  WIND    PRES   REMARKS
LA GRANDE       MOCLDY      68  37  32  N13     30.01F
#COVE           N/A         68  50  53  N1      30.04F
#COVE SCHOOL    N/A         71  45  39  E1      30.04S
#COVE 6NW       N/A         65  46  50  VRB7    29.90S
#ELGIN 3N       N/A         67  43  42  NE6     30.00S
#ELGIN 1E       N/A         68  44  42  CALM    N/A
#IMBLER SCHOOL  N/A         65  44  46  N2      29.98S
#ISLAND CITY 4N N/A         65  52  63  CALM    30.18S
#LADD CYN DOT   N/A         69  41  36  NW6     N/A
#UNION 1S       N/A         70  45  41  N1      29.87F
$$

ORZ050-260010-
WALLOWA COUNTY

CITY            SKY/WX      TMP DP  RH  WIND    PRES   REMARKS
#ENTERPRISE AP  N/A         49  29  46  CALM    29.98F
#ENTERPRISE HS  N/A         64  42  45  CALM    30.04F
#IMNAHA SCHOOL  N/A         70  46  42  N3      29.98F
#IMNAHA 10S     N/A         65  46  50  NE2     30.00F
#JOSEPH 3N      N/A         62  39  43  W2      30.07F
#JOSEPH 3W      N/A         61  42  50  NE5     29.90F
#LOSTINE        N/A         68  40  36  CALM    29.81F
#LOSTINE 3SE    N/A         65  39  38  VRB1    30.03F
#MT HOWARD 8000 N/A         43  34  70  NW2     30.16S
#PROMISE 1S     N/A         55  45  69  S2      30.16R
#WALLOWA SCHOOL N/A         63  46  54  NW3     30.01R



$$



USA.gov is the U.S. government's official web portal to all federal, state and local government web resources and services.